UAE209 LGAV-KEWR

Flight info

Callsign UAE209
Flight time N/A
Altitude 34000
Route ROPOX UM749 SKP UL617 TSL UN130 TALAS DCT MAVAR DCT AKIKA DCT VEKEN DCT UMVEG DCT IRBIR DCT KUNOD DCT EDISA DCT PITES DCT REMBA M624 BUB L608 DENUT L610 HEMEL T420 TNT UQ4 WAL L10 PENIL UL28 LELDO M145 BAGSO DCT ETARI/M084F360 DCT 5630N02000W 57N030W 5630N04000W 5530N05000W DCT KODIK/N0485F360 DCT MIILS DCT CBIRD DCT HANAA FLOSI4
Aircraft B77W/H-SDE1E2E3FGHIJ2J3J4J5M1RWXY/LB1D1

Departure

Time N/A
Airport Athens Eleftherios Venizelos International Airport (LGAV)

Arrival

Time 2026-04-25 18:43
Airport Newark Liberty International Airport (KEWR)
Time Latitude Longitude Altitude Speed Heading
2026-04-25 18:25 41.41083 -74.39130 20940 ft 422 kts 203°
2026-04-25 18:25 41.38334 -74.40314 20415 ft 418 kts 202°
2026-04-25 18:25 41.35538 -74.41519 20256 ft 422 kts 202°
2026-04-25 18:25 41.32740 -74.42722 19756 ft 421 kts 202°
2026-04-25 18:26 41.29963 -74.43913 19175 ft 418 kts 202°
2026-04-25 18:26 41.27219 -74.45088 18688 ft 411 kts 202°
2026-04-25 18:26 41.24503 -74.46248 18159 ft 405 kts 202°
2026-04-25 18:26 41.21836 -74.47388 17550 ft 401 kts 202°
2026-04-25 18:27 41.19185 -74.48523 16927 ft 398 kts 202°
2026-04-25 18:27 41.16590 -74.49633 16341 ft 395 kts 202°
2026-04-25 18:27 41.13982 -74.50748 15774 ft 392 kts 202°
2026-04-25 18:27 41.11402 -74.51848 15268 ft 387 kts 202°
2026-04-25 18:28 41.08837 -74.52940 14733 ft 383 kts 202°
2026-04-25 18:28 41.06291 -74.53949 14210 ft 380 kts 196°
2026-04-25 18:28 41.03655 -74.54376 13579 ft 384 kts 187°
2026-04-25 18:29 40.98430 -74.54678 12976 ft 364 kts 187°
2026-04-25 18:29 40.95942 -74.54854 12879 ft 350 kts 187°
2026-04-25 18:30 40.89269 -74.55432 11994 ft 292 kts 189°
2026-04-25 18:30 40.87263 -74.55620 11296 ft 285 kts 189°
2026-04-25 18:30 40.85294 -74.55805 10524 ft 282 kts 189°
2026-04-25 18:30 40.83338 -74.55985 9723 ft 280 kts 188°
2026-04-25 18:31 40.81395 -74.56009 8907 ft 278 kts 183°
2026-04-25 18:31 40.79507 -74.55905 8218 ft 271 kts 182°
2026-04-25 18:31 40.77649 -74.55782 7459 ft 266 kts 181°
2026-04-25 18:31 40.75819 -74.55639 6784 ft 259 kts 181°
2026-04-25 18:32 40.74032 -74.55530 6107 ft 254 kts 182°
2026-04-25 18:32 40.72276 -74.55440 5547 ft 257 kts 181°
2026-04-25 18:32 40.70497 -74.55352 5305 ft 254 kts 180°
2026-04-25 18:32 40.68737 -74.55256 5085 ft 249 kts 179°
2026-04-25 18:33 40.67024 -74.55161 4877 ft 245 kts 180°
2026-04-25 18:33 40.65345 -74.55069 4557 ft 243 kts 178°
2026-04-25 18:33 40.63659 -74.54795 4243 ft 243 kts 171°
2026-04-25 18:33 40.62006 -74.54383 4044 ft 240 kts 168°
2026-04-25 18:34 40.60387 -74.53901 3778 ft 238 kts 166°
2026-04-25 18:34 40.58769 -74.53356 3499 ft 240 kts 164°
2026-04-25 18:34 40.57207 -74.52775 3410 ft 232 kts 162°
2026-04-25 18:34 40.55697 -74.52151 3333 ft 222 kts 160°
2026-04-25 18:35 40.54255 -74.51531 3335 ft 216 kts 162°
2026-04-25 18:35 40.52809 -74.51006 3345 ft 215 kts 165°
2026-04-25 18:35 40.51352 -74.50515 3395 ft 216 kts 162°
2026-04-25 18:35 40.49950 -74.49899 3356 ft 210 kts 150°
2026-04-25 18:36 40.49035 -74.48456 3266 ft 209 kts 113°
2026-04-25 18:36 40.48734 -74.46568 3116 ft 213 kts 99°
2026-04-25 18:36 40.48663 -74.44628 3068 ft 212 kts 96°
2026-04-25 18:36 40.48626 -74.42713 2991 ft 211 kts 96°
2026-04-25 18:37 40.48605 -74.40777 2896 ft 214 kts 91°
2026-04-25 18:37 40.48898 -74.38830 2819 ft 218 kts 78°
2026-04-25 18:37 40.49340 -74.36975 2779 ft 204 kts 77°
2026-04-25 18:37 40.49758 -74.35268 2769 ft 188 kts 78°
2026-04-25 18:38 40.50135 -74.33708 2776 ft 178 kts 78°
2026-04-25 18:38 40.50507 -74.32124 2803 ft 184 kts 77°
2026-04-25 18:38 40.50884 -74.30528 2786 ft 180 kts 78°
2026-04-25 18:38 40.51270 -74.28989 2779 ft 175 kts 71°
2026-04-25 18:39 40.52127 -74.27809 2820 ft 188 kts 37°
2026-04-25 18:39 40.53261 -74.26886 2805 ft 193 kts 40°
2026-04-25 18:39 40.54397 -74.25956 2798 ft 193 kts 34°
2026-04-25 18:39 40.55583 -74.25159 2788 ft 189 kts 32°
2026-04-25 18:40 40.56769 -74.24402 2533 ft 194 kts 31°
2026-04-25 18:40 40.57973 -74.23638 2275 ft 189 kts 31°
2026-04-25 18:40 40.59134 -74.22909 1994 ft 179 kts 32°
2026-04-25 18:40 40.60191 -74.22240 1814 ft 160 kts 32°
2026-04-25 18:41 40.61159 -74.21623 1558 ft 149 kts 33°
2026-04-25 18:41 40.62093 -74.21027 1408 ft 149 kts 32°
2026-04-25 18:41 40.63024 -74.20434 1175 ft 149 kts 33°
2026-04-25 18:41 40.63954 -74.19842 953 ft 147 kts 32°
2026-04-25 18:42 40.64867 -74.19261 745 ft 147 kts 32°
2026-04-25 18:42 40.65181 -74.19065 676 ft 146 kts 31°
2026-04-25 18:42 40.66745 -74.18109 382 ft 147 kts 32°
2026-04-25 18:42 40.67664 -74.17498 119 ft 146 kts 33°
2026-04-25 18:43 40.68579 -74.16910 28 ft 140 kts 30°
2026-04-25 18:43 40.69325 -74.16429 29 ft 94 kts 25°
2026-04-25 18:43 40.69748 -74.16158 29 ft 41 kts 26°
2026-04-25 18:43 40.69946 -74.16039 27 ft 9 kts
2026-04-25 18:44 40.69986 -74.16069 27 ft 6 kts 315°
2026-04-25 18:44 40.70008 -74.16102 27 ft 4 kts 309°
2026-04-25 18:44 40.70023 -74.16129 27 ft 3 kts 303°
2026-04-25 18:44 40.70033 -74.16152 27 ft 4 kts 297°
2026-04-25 18:45 40.70045 -74.16204 26 ft 8 kts 279°
2026-04-25 18:45 40.70052 -74.16298 28 ft 11 kts 275°
2026-04-25 18:45 40.70059 -74.16402 27 ft 11 kts 275°
2026-04-25 18:45 40.70060 -74.16425 29 ft 0 kts 275°
2026-04-25 18:46 40.70061 -74.16436 29 ft 7 kts 275°
2026-04-25 18:47 40.70070 -74.16577 30 ft 16 kts 275°
2026-04-25 18:47 40.70073 -74.16707 26 ft 12 kts 250°
2026-04-25 18:47 40.70019 -74.16741 27 ft 7 kts 190°
2026-04-25 18:47 40.69955 -74.16750 27 ft 14 kts 186°
2026-04-25 18:48 40.69872 -74.16764 27 ft 10 kts 188°
2026-04-25 18:48 40.69794 -74.16797 27 ft 19 kts 204°
2026-04-25 18:48 40.69669 -74.16872 27 ft 18 kts 206°
2026-04-25 18:48 40.69571 -74.16934 27 ft 14 kts 205°
2026-04-25 18:49 40.69493 -74.16982 27 ft 10 kts 205°
2026-04-25 18:49 40.69442 -74.17015 27 ft 7 kts 205°
2026-04-25 18:49 40.69410 -74.17035 27 ft 4 kts 206°
2026-04-25 18:49 40.69374 -74.17058 27 ft 10 kts 206°
2026-04-25 18:50 40.69268 -74.17125 27 ft 15 kts 207°
2026-04-25 18:50 40.69256 -74.17183 27 ft 7 kts 272°
2026-04-25 18:50 40.69223 -74.17244 27 ft 7 kts 210°
2026-04-25 18:50 40.69195 -74.17262 27 ft 1 kts 226°
2026-04-25 18:51 40.69184 -74.17290 27 ft 1 kts 254°
2026-04-25 18:51 40.69184 -74.17294 27 ft 3 kts 262°
2026-04-25 18:51 40.69187 -74.17326 27 ft 0 kts 275°